[[{"header":{"parameterUnit":"m.s-1","parameterCategory":1,"la1":30.2991,"la2":30.254,"lo1":-89.0895,"lo2":-89.0444,"dy":0.0017,"dx":0.0017,"nx":28,"ny":28,"refTime":"2024-02-15T09:00:00:Z","depth":0,"parameterNumber":2,"parameterNumberName":"U-component_of_WINDS"},"data":[0,0,0,0,0,0,0,0,0,0,0,0,0,0,0,0,0,0,0,0,0,0,0,0,0,0,0,0,0,0,0,0,0,0,0,0,0,0,0,0,0,0,0,0,0,0,0,0,0,0,0,0,0,0,0,0,0,0,0.2164,0.2164,0,0.2164,0.2164,0.2164,0.2176,0.2176,0.2177,0.2177,0.2176,0.2176,0.2176,0,0,0,0,0,0,0,0,0,0,0,0,0,0.2171,0.2171,0.2164,0.2164,0.2164,0.2164,0.2164,0.2164,0.2176,0.2176,0.2177,0.2177,0.2176,0.2176,0.2176,0,0,0,0,0,0,0,0,0,0,0,0,0,0.217,0.2171,0.2164,0.217,0.217,0.2164,0.2164,0.2164,0.2176,0.2176,0.2177,0.2177,0.2177,0.2176,0.2176,0.2164,0,0,0.2174,0.2174,0,0,0,0,0,0,0,0,0.217,0.2169,0.2169,0.2169,0.217,0.2171,0.2167,0.2164,0.2176,0.2174,0.2177,0.2177,0.2174,0.2174,0.2173,0.2164,0.2164,0.2174,0.2174,0.2174,0.2174,0,0,0,0,0,0,0,0.217,0.2169,0.2164,0.2169,0.217,0.2172,0.2172,0.2166,0.2171,0.2174,0.2175,0.2175,0.2174,0.2173,0.2173,0.2164,0.2174,0.2174,0.2174,0.2173,0.2143,0.2143,0,0,0,0,0,0,0.2169,0.2169,0.2164,0.2164,0.2171,0.2171,0.2172,0.217,0.2171,0.2172,0.2174,0.2175,0.2174,0.2173,0.2173,0.2158,0.2174,0.2173,0.2173,0.2144,0.2143,0.2143,0,0,0,0,0,0,0.2169,0.2169,0.2164,0.2167,0.2167,0.2171,0.2169,0.217,0.2169,0.2172,0.2173,0.2172,0.2174,0.2174,0.2166,0.2158,0.2173,0.2173,0.2144,0.2144,0.2143,0.2129,0,0,0,0,0,0,0.217,0.2169,0.2165,0.2167,0.2166,0.2157,0.2168,0.2169,0.2168,0.2169,0.217,0.2171,0.2174,0.2166,0.2165,0.2158,0.2172,0.2145,0.2144,0.2143,0.213,0.2127,0.2125,0,0,0,0,0,0.217,0.2161,0.2165,0.2164,0.2162,0.2157,0.2157,0.2161,0.2167,0.2163,0.2165,0.2171,0.2159,0.2165,0.2164,0.2157,0.2146,0.2144,0.2143,0.2131,0.2128,0.2125,0,0,0,0,0,0,0.2158,0.2161,0.2165,0.2157,0.2157,0.2159,0.2154,0.2158,0.2156,0.2157,0.2163,0.2163,0.2154,0.2155,0.2161,0.2144,0.2153,0.2152,0.2144,0.2142,0.2139,0.2139,0.2172,0,0,0,0,0,0.2155,0.2151,0.2154,0.2146,0.2146,0.215,0.2148,0.2151,0.2151,0.2151,0.2152,0.2151,0.2147,0.2145,0.2141,0.213,0.2129,0.2124,0.2122,0.212,0.2118,0.2111,0.2108,0.2139,0.2139,0.2139,0,0,0.2147,0.2148,0.2146,0.2144,0.2144,0.2139,0.2149,0.2144,0.2141,0.215,0.2142,0.2143,0.2142,0.2132,0.2128,0.2132,0.211,0.2118,0.2117,0.2116,0.2109,0.2106,0.2104,0.2138,0.2138,0.2138,0,0,0.2131,0.2132,0.2125,0.2125,0.2125,0.2127,0.2125,0.2127,0.2127,0.212,0.2126,0.2122,0.2115,0.2114,0.2112,0.2094,0.2099,0.2093,0.2081,0.2074,0.2072,0.2069,0.2062,0.2059,0.2092,0.2091,0.2091,0,0.2122,0.2116,0.2121,0.2115,0.2113,0.2121,0.2114,0.2113,0.2112,0.211,0.2115,0.2106,0.2106,0.2095,0.2091,0.209,0.2087,0.2093,0.2072,0.2069,0.2068,0.206,0.2057,0.2091,0.2091,0.2091,0.2091,0,0.2103,0.2099,0.2093,0.2091,0.2089,0.2082,0.2086,0.2083,0.2086,0.2088,0.2079,0.2079,0.2075,0.2073,0.2077,0.2062,0.2065,0.2071,0.208,0.2064,0.2057,0.2054,0.2089,0.209,0.209,0.209,0,0,0.208,0.2081,0.2079,0.2077,0.2077,0.2073,0.2066,0.2062,0.2059,0.2057,0.2051,0.2044,0.2049,0.2048,0.2051,0.2045,0.2028,0.2051,0.2051,0.2046,0.2011,0.2005,0.2002,0.2032,0.2031,0.2031,0.201,0,0.2064,0.2052,0.2056,0.2044,0.2039,0.2046,0.204,0.2038,0.2039,0.2035,0.2036,0.203,0.2038,0.2037,0.2031,0.2032,0.2021,0.2033,0.2025,0.2024,0.2024,0.1999,0.1994,0.1974,0.2008,0.2007,0.2007,0,0.2043,0.2041,0.2028,0.2027,0.2025,0.2019,0.2015,0.2011,0.2009,0.201,0.2007,0.2012,0.2004,0.2013,0.2001,0.2009,0.2006,0.2006,0.2005,0.2004,0.2014,0.1996,0.1968,0.1965,0.2003,0.2003,0.2004,0,0.2026,0.2019,0.201,0.2009,0.2008,0.2004,0.2003,0.2002,0.1999,0.1995,0.1993,0.1988,0.1986,0.1982,0.1984,0.1991,0.1971,0.1981,0.1971,0.1971,0.1966,0.1966,0.1937,0.1966,0.1966,0.1966,0.1966,0,0.2007,0.1999,0.2002,0.1997,0.1987,0.1991,0.1981,0.1982,0.198,0.1974,0.198,0.1974,0.1978,0.1972,0.1974,0.1963,0.1962,0.1962,0.1962,0.196,0.196,0.1958,0.1959,0.1965,0.1965,0.1965,0.1965,0,0.1986,0.1989,0.1979,0.1979,0.1978,0.1971,0.1971,0.1965,0.1966,0.1958,0.1956,0.1958,0.1951,0.1953,0.1946,0.1947,0.1932,0.1935,0.1933,0.1933,0.1922,0.1923,0.1889,0.1884,0.1918,0.1917,0.1917,0,0.1973,0.1967,0.1966,0.1962,0.1961,0.1955,0.1951,0.1955,0.1951,0.1948,0.1942,0.1935,0.193,0.1919,0.1919,0.1913,0.1915,0.1903,0.1914,0.1912,0.1913,0.1913,0.1912,0.1901,0.1901,0.19,0.19,0,0.195,0.1951,0.1946,0.1941,0.1937,0.1933,0.193,0.1926,0.193,0.1925,0.1918,0.1914,0.1906,0.1898,0.1893,0.1891,0.1896,0.1897,0.1894,0.1892,0.189,0.1889,0.1926,0.1897,0.1898,0.1898,0.1898,0.1898,0.1932,0.1926,0.1923,0.1917,0.1915,0.1912,0.1906,0.1906,0.19,0.1893,0.1896,0.1887,0.1884,0.1877,0.1874,0.1867,0.1871,0.1868,0.1866,0.1865,0.1863,0.1892,0.1866,0.1866,0.1866,0.1867,0.1867,0,0.1907,0.1906,0.19,0.1895,0.189,0.1895,0.1891,0.1886,0.1878,0.1875,0.187,0.1861,0.1854,0.1853,0.1846,0.184,0.1842,0.1838,0.1838,0.1837,0.186,0.1863,0.1836,0.1836,0.1836,0.1836,0.1836,0.1836,0.1894,0.1883,0.1884,0.1872,0.1871,0.1862,0.1859,0.1856,0.1853,0.1842,0.1837,0.1836,0.1833,0.1826,0.1819,0.1819,0.1815,0.1811,0.1811,0.1833,0.1836,0.1838,0.1841,0.181,0.181,0.1788,0.1788,0.1788]},{"header":{"parameterUnit":"m.s-1","parameterCategory":1,"la1":30.2991,"la2":30.254,"lo1":-89.0895,"lo2":-89.0444,"dy":0.0017,"dx":0.0017,"nx":28,"ny":28,"refTime":"2024-02-15T09:00:00:Z","depth":0,"parameterNumber":3,"parameterNumberName":"V-component_of_WINDS"},"data":[0,0,0,0,0,0,0,0,0,0,0,0,0,0,0,0,0,0,0,0,0,0,0,0,0,0,0,0,0,0,0,0,0,0,0,0,0,0,0,0,0,0,0,0,0,0,0,0,0,0,0,0,0,0,0,0,0,0,0.5085,0.5084,0,0.5,0.4999,0.4998,0.4969,0.4969,0.4969,0.497,0.4879,0.4876,0.4873,0,0,0,0,0,0,0,0,0,0,0,0,0,0.5216,0.5214,0.5085,0.5084,0.5083,0.5,0.4999,0.4998,0.4968,0.4969,0.4969,0.497,0.488,0.4877,0.4873,0,0,0,0,0,0,0,0,0,0,0,0,0,0.5148,0.5213,0.5085,0.5058,0.5055,0.5001,0.4999,0.4998,0.4968,0.4969,0.4969,0.497,0.4881,0.4877,0.4873,0.4838,0,0,0.486,0.4859,0,0,0,0,0,0,0,0,0.5152,0.5143,0.5063,0.506,0.5056,0.4995,0.5012,0.4944,0.4968,0.5001,0.497,0.497,0.4917,0.491,0.4893,0.4833,0.483,0.486,0.4857,0.4856,0.4855,0,0,0,0,0,0,0,0.5157,0.5147,0.5051,0.5062,0.5058,0.5049,0.504,0.4999,0.4957,0.4998,0.4996,0.4987,0.4915,0.4897,0.4891,0.4828,0.486,0.4856,0.4854,0.4852,0.4735,0.4735,0,0,0,0,0,0,0.5166,0.5151,0.5054,0.5049,0.5106,0.5046,0.5036,0.5014,0.4958,0.4949,0.4986,0.4985,0.4904,0.4895,0.4887,0.4842,0.4856,0.4852,0.485,0.4736,0.4735,0.4734,0,0,0,0,0,0,0.5169,0.5158,0.5057,0.5099,0.5085,0.5043,0.5019,0.5012,0.4994,0.4949,0.494,0.4976,0.4904,0.4893,0.485,0.4838,0.485,0.4846,0.4737,0.4736,0.4735,0.4752,0,0,0,0,0,0,0.5173,0.5159,0.5147,0.5099,0.5083,0.5023,0.5019,0.501,0.4988,0.4986,0.4936,0.4929,0.4903,0.4857,0.4846,0.4833,0.4843,0.4737,0.4736,0.4735,0.4752,0.4752,0.4751,0,0,0,0,0,0.5178,0.5154,0.5146,0.5135,0.5067,0.5022,0.5013,0.4986,0.4987,0.4973,0.4944,0.493,0.4842,0.4853,0.4841,0.4826,0.4738,0.4736,0.4735,0.4752,0.4752,0.4751,0,0,0,0,0,0,0.52,0.5147,0.5138,0.5098,0.5065,0.5018,0.4999,0.4986,0.4951,0.4951,0.4917,0.4906,0.4866,0.4842,0.4855,0.4789,0.4789,0.4785,0.4806,0.4805,0.4805,0.4811,0.484,0,0,0,0,0,0.52,0.517,0.5125,0.5094,0.5078,0.5042,0.5021,0.5003,0.4967,0.4953,0.492,0.4884,0.4848,0.4825,0.479,0.4749,0.4737,0.4733,0.4732,0.4732,0.4729,0.4704,0.4702,0.4729,0.4729,0.4729,0,0,0.52,0.5168,0.515,0.5098,0.507,0.5038,0.503,0.4997,0.4972,0.4947,0.4905,0.488,0.4838,0.4796,0.4776,0.4774,0.4719,0.473,0.473,0.4727,0.4703,0.47,0.4698,0.4728,0.4729,0.4729,0,0,0.5184,0.5157,0.5128,0.51,0.5059,0.5035,0.5028,0.4983,0.4966,0.4923,0.4904,0.4873,0.4813,0.4783,0.476,0.4733,0.4719,0.4722,0.4719,0.4696,0.4694,0.4692,0.4682,0.4678,0.472,0.472,0.472,0,0.5188,0.5141,0.5114,0.5082,0.5059,0.5036,0.5006,0.498,0.4929,0.4913,0.4913,0.4836,0.4806,0.4756,0.475,0.4732,0.4722,0.4728,0.4697,0.4694,0.4692,0.4682,0.4678,0.472,0.472,0.472,0.472,0,0.5148,0.5116,0.5097,0.505,0.5025,0.4994,0.4961,0.4938,0.4922,0.4898,0.4855,0.4818,0.4775,0.4761,0.4745,0.4709,0.471,0.4704,0.4703,0.4691,0.468,0.4676,0.4721,0.4721,0.4721,0.4721,0,0,0.5143,0.5082,0.5075,0.5053,0.5006,0.498,0.4947,0.4906,0.4887,0.4853,0.4824,0.4773,0.4767,0.4741,0.4721,0.4701,0.4681,0.4697,0.4695,0.4694,0.4639,0.4643,0.4639,0.4672,0.4671,0.467,0.4642,0,0.512,0.5063,0.5037,0.4991,0.496,0.4938,0.4909,0.4876,0.4853,0.4822,0.4795,0.4759,0.4754,0.4738,0.4718,0.4688,0.4669,0.4689,0.4643,0.4642,0.4654,0.4634,0.4639,0.4614,0.4638,0.4637,0.4637,0,0.5086,0.5052,0.5003,0.496,0.4946,0.4921,0.4881,0.4852,0.4814,0.4798,0.477,0.4751,0.4715,0.4717,0.4666,0.468,0.466,0.4642,0.4641,0.4635,0.4638,0.4627,0.4606,0.4602,0.463,0.4631,0.4631,0,0.5086,0.5029,0.4992,0.4974,0.4923,0.4906,0.4883,0.4846,0.4823,0.4787,0.4772,0.4732,0.471,0.468,0.465,0.4655,0.4601,0.4601,0.4586,0.4587,0.4575,0.4576,0.455,0.4563,0.4563,0.4563,0.4563,0,0.5063,0.5033,0.4992,0.4969,0.4935,0.4905,0.4872,0.4848,0.4815,0.4786,0.4764,0.4737,0.47,0.4668,0.4644,0.4605,0.4595,0.4581,0.4575,0.4582,0.4584,0.4568,0.4569,0.4562,0.4563,0.4563,0.4563,0,0.5057,0.5028,0.4987,0.4942,0.493,0.4907,0.4868,0.4844,0.4819,0.4783,0.4773,0.4734,0.4695,0.4663,0.4611,0.4595,0.4554,0.4548,0.4568,0.4564,0.4551,0.4552,0.4513,0.4505,0.4524,0.4524,0.4524,0,0.5044,0.5021,0.4975,0.4955,0.4933,0.49,0.4877,0.4847,0.4823,0.4778,0.476,0.472,0.4686,0.4625,0.4591,0.4551,0.4543,0.4532,0.4537,0.4545,0.4542,0.4544,0.4541,0.4531,0.4531,0.4531,0.4531,0,0.5024,0.5011,0.4979,0.4942,0.4915,0.4884,0.4852,0.4836,0.48,0.4774,0.4735,0.4709,0.4658,0.4618,0.4574,0.455,0.4534,0.453,0.4524,0.4532,0.4544,0.4537,0.4566,0.4531,0.4531,0.4531,0.4531,0.4531,0.5014,0.4992,0.4956,0.4921,0.4895,0.4865,0.4841,0.4814,0.4781,0.4738,0.4722,0.4681,0.4643,0.4584,0.4559,0.4526,0.4524,0.4516,0.4514,0.4512,0.4513,0.455,0.4518,0.4518,0.4518,0.4518,0.4518,0,0.4992,0.4968,0.4936,0.4893,0.4865,0.4855,0.4819,0.4796,0.4761,0.4728,0.4695,0.465,0.4611,0.4575,0.4534,0.4514,0.4506,0.4505,0.4505,0.45,0.4517,0.4526,0.4512,0.4512,0.4512,0.4512,0.4512,0.4512,0.4978,0.4941,0.4923,0.4872,0.4848,0.4809,0.479,0.4762,0.4736,0.4686,0.4655,0.4632,0.4596,0.4553,0.4516,0.4507,0.4492,0.4492,0.4481,0.4498,0.4499,0.45,0.4508,0.449,0.449,0.4466,0.4465,0.4465]}]]